Weather History for Dansville, NY

Change the Weather History Date:

Monday, January 28, 2013

  Actual Average Record
Temperature  
Mean Temperature 34 °F -  
Max Temperature 42 °F 32 °F 59 °F (2002)
Min Temperature 25 °F 15 °F -9 °F (2005)
Degree Days  
Heating Degree Days 32    
Moisture  
Dew Point 31 °F    
Average Humidity 86    
Maximum Humidity 100    
Minimum Humidity 57    
Precipitation  
Precipitation 0.13 in - - ()
Sea Level Pressure  
Sea Level Pressure 30.06 in    
Wind  
Wind Speed 7 mph (SSE)    
Max Wind Speed 15 mph    
Max Gust Speed 18 mph    
Visibility 6 miles    
Events Rain , Snow    
Averages and records for this station are not official NWS values.
T = Trace of Precipitation, MM = Missing Value Source: NWS Daily Summary

Daily Weather History Graph

Daily Weather History Graph

Search for Another Location

Airport:

Trip Planner

Search our weather history database for the weather conditions in past years. The results will help you decide how hot, cold, wet, or windy it might be!

Date:

Astronomy

Jan. 28, 2013 Rise Set
Actual Time 7:28 AM EST 5:19 PM EST
Civil Twilight 6:58 AM EST 5:49 PM EST
Nautical Twilight 6:24 AM EST 6:23 PM EST
Astronomical Twilight 5:51 AM EST 6:56 PM EST
Moon 7:15 PM EST (1/28) 7:50 AM EST (1/28)
Length of Visible Light 10h 51m
Length of Day
9h 50m
Full, 98% of the Moon is Illuminated
Jan 28
Full
Feb 3
Last Quarter
Feb 10
New
Feb 17
First Quarter
Feb 25
Full

Hourly Weather History & Observations

Time (EST) Temp. Windchill Dew Point Humidity Pressure Visibility Wind Dir Wind Speed Gust Speed Precip Events Conditions
12:54 AM 25.0 °F 17.1 °F 15.1 °F 66% 30.36 in 10.0 mi SSE 6.9 mph - N/A   Overcast
1:54 AM 27.0 °F 18.0 °F 15.1 °F 61% 30.35 in 10.0 mi SSE 9.2 mph - N/A   Overcast
2:54 AM 28.0 °F 22.8 °F 16.0 °F 61% 30.33 in 10.0 mi SSE 4.6 mph - N/A   Overcast
3:54 AM 28.9 °F 22.8 °F 16.0 °F 58% 30.30 in 10.0 mi South 5.8 mph - N/A   Overcast
4:54 AM 30.9 °F 23.5 °F 17.1 °F 57% 30.27 in 10.0 mi SSE 8.1 mph - N/A   Overcast
5:28 AM 28.4 °F 20.4 °F 21.2 °F 74% 30.21 in 3.0 mi SSE 8.1 mph - 0.00 in Snow Light Snow
5:34 AM 28.4 °F 20.4 °F 23.0 °F 80% 30.21 in 1.8 mi SE 8.1 mph - 0.00 in Snow Light Snow
5:54 AM 28.0 °F 19.3 °F 25.0 °F 88% 30.24 in 2.0 mi SSE 9.2 mph - 0.00 in Snow Light Snow
6:15 AM 28.4 °F 22.2 °F 26.6 °F 93% 30.18 in 3.0 mi SSE 5.8 mph - 0.00 in Snow Light Snow
6:54 AM 28.9 °F 20.4 °F 26.1 °F 89% 30.19 in 1.5 mi SSE 9.2 mph - 0.03 in Snow Light Snow
7:01 AM 28.4 °F 19.7 °F 26.6 °F 93% 30.14 in 1.0 mi SSE 9.2 mph - 0.01 in Snow Light Snow
7:12 AM 28.4 °F 20.4 °F 26.6 °F 93% 30.12 in 2.0 mi South 8.1 mph - 0.02 in Snow Light Snow
7:20 AM 30.2 °F 22.6 °F 28.4 °F 93% 30.12 in 5.0 mi South 8.1 mph - 0.02 in   Overcast
7:28 AM 30.2 °F 21.9 °F 28.4 °F 93% 30.11 in 5.0 mi South 9.2 mph - 0.03 in Rain Light Freezing Rain
7:54 AM 32.0 °F 22.5 °F 28.0 °F 85% 30.15 in 6.0 mi SE 12.7 mph - 0.04 in Rain Light Freezing Rain
8:54 AM 34.0 °F 25.5 °F 28.9 °F 82% 30.12 in 5.0 mi SE 11.5 mph 18.4 mph 0.03 in Rain Light Freezing Rain
9:02 AM 33.8 °F 25.3 °F 28.4 °F 81% 30.06 in 5.0 mi SE 11.5 mph 18.4 mph 0.00 in Rain Light Freezing Rain
9:22 AM 33.8 °F 26.4 °F 30.2 °F 87% 30.05 in 8.0 mi SE 9.2 mph - 0.01 in Rain Light Rain
9:54 AM 35.1 °F 29.3 °F 30.9 °F 85% 30.09 in 10.0 mi SE 6.9 mph - 0.01 in   Overcast
10:54 AM 37.0 °F 29.8 °F 32.0 °F 82% 30.04 in 10.0 mi SE 10.4 mph - 0.00 in   Overcast
11:54 AM 37.9 °F 29.2 °F 34.0 °F 86% 30.02 in 4.0 mi ESE 15.0 mph - 0.00 in Rain Light Rain
12:54 PM 39.0 °F 31.4 °F 34.0 °F 82% 29.97 in 10.0 mi SE 12.7 mph - 0.00 in   Overcast
1:02 PM 39.2 °F 31.6 °F 33.8 °F 81% 29.92 in 10.0 mi SE 12.7 mph - N/A   Overcast
1:54 PM 41.0 °F 35.2 °F 35.1 °F 79% 29.94 in 10.0 mi SE 9.2 mph - N/A   Overcast
2:54 PM 41.0 °F 35.8 °F 36.0 °F 82% 29.93 in 10.0 mi ESE 8.1 mph - N/A   Overcast
3:54 PM 41.0 °F 35.8 °F 37.0 °F 86% 29.91 in 10.0 mi ESE 8.1 mph - N/A   Overcast
4:54 PM 42.1 °F 37.1 °F 37.0 °F 82% 29.92 in 10.0 mi SE 8.1 mph - 0.00 in   Overcast
5:54 PM 42.1 °F 37.1 °F 39.0 °F 89% 29.92 in 10.0 mi SE 8.1 mph - 0.00 in   Overcast
6:54 PM 39.9 °F 35.8 °F 37.9 °F 93% 29.93 in 9.0 mi SSE 5.8 mph - 0.00 in   Overcast
7:54 PM 39.0 °F 34.8 °F 37.9 °F 96% 29.94 in 8.0 mi SE 5.8 mph - N/A   Overcast
8:54 PM 39.0 °F 36.8 °F 37.9 °F 96% 29.94 in 4.0 mi South 3.5 mph - 0.00 in   Overcast
9:27 PM 39.2 °F - 39.2 °F 100% 29.91 in 2.5 mi Calm Calm - 0.00 in Rain Light Rain
9:33 PM 39.2 °F - 39.2 °F 100% 29.91 in 2.0 mi Calm Calm - 0.00 in Rain Light Rain
9:42 PM 39.2 °F 37.0 °F 39.2 °F 100% 29.91 in 2.5 mi SSE 3.5 mph - 0.00 in Rain Light Rain
9:51 PM 39.2 °F - 37.4 °F 93% 29.91 in 2.5 mi Calm Calm - 0.00 in   Overcast
9:54 PM 39.0 °F - 39.0 °F 100% 29.96 in 2.5 mi Calm Calm - 0.01 in   Overcast
10:15 PM 37.4 °F - 37.4 °F 100% 29.92 in 2.5 mi Calm Calm - 0.00 in Rain Light Rain
10:54 PM 37.9 °F - 37.0 °F 97% 29.99 in 2.5 mi Calm Calm - 0.01 in   Overcast
11:02 PM 37.4 °F - 37.4 °F 100% 29.95 in 3.0 mi Calm Calm - N/A   Overcast
11:54 PM 42.1 °F - 41.0 °F 96% 30.01 in 4.0 mi Calm Calm - N/A   Overcast